CW4772 Weather Reports


Display with metric or nautical units.
time (UTC)temp
F
wind
direction
speed
MPH
gust
MPH
rain 1hr
in
rain 24hr
in
rain mn
in
humidity
%
barometer
mb
20181119173221 28 69 5.0 10.0 0.00 0.02 0.02 82 1016.1
20181119163221 28 98 4.0 7.0 0.00 0.06 0.02 79 1016.1
20181119160221 28 92 3.0 7.0 0.00 0.06 0.02 80 1015.8
20181119150221 30 59 3.0 9.0 0.00 0.06 0.02 77 1015.8
20181119143221 30 56 5.0 7.0 0.00 0.06 0.02 76 1015.9
20181119140221 31 57 2.0 3.0 0.00 0.06 0.02 74 1016.0
20181119133221 30 61 2.0 7.0 0.00 0.06 0.02 75 1015.9
20181119113221 30 54 5.0 10.0 0.00 0.06 0.02 74 1015.8
20181119103220 29 75 5.0 10.0 0.00 0.06 0.02 79 1015.8
20181119100221 29 53 5.0 9.0 0.00 0.06 0.02 82 1016.0
20181119083222 28 54 4.0 8.0 0.00 0.06 0.02 84 1016.0
20181119080220 28 37 6.0 10.0 0.00 0.06 0.02 86 1015.9
20181119073220 28 55 5.0 10.0 0.00 0.06 0.02 88 1015.9
20181119063220 27 30 5.0 9.0 0.01 0.06 0.02 91 1015.9
20181119053222 26 36 4.0 8.0 0.00 0.05 0.01 90 1015.8
20181119050221 26 28 3.0 6.0 0.00 0.05 0.01 88 1015.7
20181119043220 26 45 3.0 6.0 0.01 0.05 0.01 87 1015.9
20181119040221 27 36 2.0 6.0 0.01 0.05 0.01 86 1016.1
20181119030221 27 27 1.0 5.0 0.00 0.04 0.00 86 1016.5
20181119020222 28 32 3.0 6.0 0.00 0.04 0.00 83 1017.2
20181119013220 28 40 3.0 6.0 0.00 0.04 0.00 84 1017.5
20181119010222 29 34 2.0 5.0 0.00 0.04 0.00 84 1017.9
20181119003219 29 31 1.0 3.0 0.00 0.04 0.00 84 1018.0
20181118233220 29 28 0.0 0.0 0.00 0.04 0.00 85 1018.3
20181118223221 29 28 2.0 5.0 0.00 0.04 0.04 85 1018.7
20181118213220 29 28 0.0 3.0 0.00 0.04 0.04 87 1019.4
20181118210220 30 26 1.0 5.0 0.00 0.04 0.04 89 1019.8
20181118203222 30 36 2.0 6.0 0.00 0.04 0.04 90 1020.2
20181118200221 30 40 2.0 6.0 0.00 0.04 0.04 92 1020.3
20181118180222 31 37 2.0 7.0 0.04 0.04 0.04 94 1020.9